Regional Weather Roundup
Issued by NWS

Home | Current Version | Previous Version | Graphics & Text | Print | Product List | Glossary On
Versions: 1 2 3 4 5 6 7 8 9 10 11 12 13 14 15 16 17 18 19 20 21 22 23 24 25 26 27 28 29 30 31 32 33 34 35 36 37 38 39 40 41 42 43 44 45 46 47 48 49 50
000
ASUS45 KTFX 222310
RWRMT
MONTANA REGIONAL WEATHER ROUNDUP
NATIONAL WEATHER SERVICE GREAT FALLS MT
500 PM MDT FRI MAY 22 2015

NOTE: "FAIR" INDICATES FEW OR NO CLOUDS BELOW 12000 FEET WITH NO
SIGNIFICANT WEATHER AND/OR OBSTRUCTIONS TO VISIBILITY.

MTZ001>007-043-230000-
WEST OF THE DIVIDE

CITY           SKY/WX    TMP DP  RH WIND       PRES   REMARKS
KALISPELL      PTCLDY    81  35  19 NE16G31   29.83F
MISSOULA       MOSUNNY   73  43  33 N7        29.83S
BUTTE          PTSUNNY   64  36  35 E15       29.94F
MULLAN PASS    PTSUNNY   61  34  36 VRB5      29.96S
DEER LODGE       N/A     66  37  34 NE12      29.94S
EUREKA           N/A     81  30  16 CALM      29.83F
HAMILTON         N/A     73  36  25 N8        29.81F
LIBBY            N/A     81  27  13 E3        29.80F
RONAN            N/A     77  40  26 N10       29.89F
THOMPSON FALLS   N/A     81  37  20 NE5       29.83F
$$

MTZ008-052>055-230000-
SOUTHWEST MONTANA

CITY           SKY/WX    TMP DP  RH WIND       PRES   REMARKS
BOZEMAN        CLOUDY    61  48  62 W5        29.90S
DILLON         CLOUDY    62  41  46 CALM      29.89F
W YELLOWSTONE  CLOUDY    54  39  58 N8        29.94S
THREE FORKS      N/A     64  64 100 NE13      29.90S
TWIN BRIDGES     N/A     65  39  38 N17       29.90R
$$

MTZ009-010-012-014-046-048-049-054-230000-
EAST SLOPES AND CENTRAL MONTANA

CITY           SKY/WX    TMP DP  RH WIND       PRES   REMARKS
CUT BANK       PTSUNNY   71  35  26 E15       29.96S
GREAT FALLS    MOSUNNY   70  37  29 VRB5      29.91F
MALMSTROM AFB  MOSUNNY   68  44  42 E9G18     29.91F
HELENA         PTSUNNY   70  39  32 N10       29.89S
CONRAD           N/A     71  43  36 NE10      29.98S
$$

MTZ011-013-016-021-045-047-050-051-230000-
NORTH CENTRAL MONTANA

CITY           SKY/WX    TMP DP  RH WIND       PRES   REMARKS
HAVRE          SUNNY     73  43  33 SE12G21   29.93S
LEWISTOWN      CLOUDY    61  45  55 E7        29.95S
N BAR RANCH    MOCLDY    63  43  48 E8G15     29.97S
CHINOOK          N/A     72  45  37 E8G22     29.93F
FORT BENTON      N/A     73  45  35 E13G18    29.91F
$$

MTZ017>020-022>027-061-062-230000-
NORTHEAST MONTANA

CITY           SKY/WX    TMP DP  RH WIND       PRES   REMARKS
GLASGOW        CLOUDY    72  40  31 SE18G25   29.96F
JORDAN           N/A     72  42  34 SE20G29   29.94F
SIDNEY         MOSUNNY   75  30  19 SE14      30.01F
WOLF POINT     PTSUNNY   74  39  28 SE13G18   29.98F
MALTA            N/A     73  45  36 E13       29.92S
PLENTYWOOD       N/A     75  30  19 SE18G28   30.03S
POPLAR           N/A     75  30  19 SE20G25   29.99F
$$

MTZ028>42-056>058-230000-
SOUTHCENTRAL AND SOUTHEAST MONTANA

CITY           SKY/WX    TMP DP  RH WIND       PRES   REMARKS
BAKER          CLOUDY    70  39  32 S18G28    30.02F
BILLINGS       PTSUNNY   69  45  41 E14       29.89F
LIVINGSTON     PTSUNNY   70  45  40 E17G23    29.88F
MILES CITY     CLOUDY    70  43  37 SE18G28   29.95F
BIG TIMBER       N/A     61  45  55 N12       29.92R
EKALAKA          N/A     64  40  41 SE17      30.00F
FORSYTH          N/A     66  45  45 SE15      29.93F
LAUREL           N/A     68  43  40 E9        29.89S
ROUNDUP          N/A     68  43  40 NE1       29.83F
$$

REGIONAL REPORTS...DAKOTAS

CITY           SKY/WX    TMP DP  RH WIND       PRES   REMARKS
WILLISTON      SUNNY     76  32  20 SE15G25   30.03F
MINOT          PTSUNNY   76  30  18 E6        30.07F
DICKINSON      MOSUNNY   70  34  26 SE22G28   30.04F
BEACH          MOCLDY    68  36  30 SE21G30   30.03S
CROSBY         FAIR      73  32  21 S7G17     30.06F
WATFORD CITY   FAIR      72  32  23 SE18G28   30.02F
BISMARCK       MOSUNNY   74  37  26 SE15G23   30.08F
GRAND FORKS    MOSUNNY   77  35  21 VRB6      30.11F
FARGO          SUNNY     75  40  28 S9        30.13F
BUFFALO SD       N/A     64  44  48 S20       29.98S
RAPID CITY     CLOUDY    59  42  53 S16       30.06F
$$

REGIONAL REPORTS...WYOMING/IDAHO/WASHINGTON

CITY           SKY/WX    TMP DP  RH WIND       PRES   REMARKS
GILLETTE       CLOUDY    53  43  68 SE16      30.00F
SHERIDAN       CLOUDY    60  45  57 SE22G32   29.94R
BUFFALO WY       N/A     52  45  77 SE16      29.99F
CODY           CLOUDY    52  45  76 NW5       29.92F
YELLOWSTONE LA   N/A     55  30  38 VRB3      29.98F
IDAHO FALLS    CLOUDY    63  47  55 SW3       29.86S
SALMON         CLOUDY    68  43  40 E16G23    29.84S
BOISE          PTSUNNY   72  40  31 CALM      29.81F
SPOKANE        TSTM      69  51  52 S13       29.82R
$$

REGIONAL REPORTS...ALBERTA

CITY           SKY/WX    TMP DP  RH WIND       PRES   REMARKS
EDMONTON       SUNNY     79  27  14 W3        29.97F
CALGARY        MOSUNNY   73  28  19 SE12      29.99S
LETHBRIDGE     MOSUNNY   70  34  26 NE8G18    29.95F
MEDICINE HAT   MOSUNNY   79  27  14 E16       29.93F
$$

REGIONAL REPORTS...SASKATCHEWAN

CITY           SKY/WX    TMP DP  RH WIND       PRES   REMARKS
SWIFT CURRENT  SUNNY     73  27  17 SE13G23   30.01F
REGINA         MOSUNNY   73  36  25 S7        30.04F
SASKATOON      MOSUNNY   79  30  17 SW8       30.03F
$$



USA.gov is the U.S. government's official web portal to all federal, state and local government web resources and services.